Weather reports worldwide

Advertisment
Newton Rigg, United Kingdom (99152): temperature & dewpoint: 18.06.2017 23:00:00 - 24.06.2017 23:00:00 (BST)Newton Rigg, United Kingdom (99152): temperature 5cm: 18.06.2017 23:00:00 - 24.06.2017 23:00:00 (BST)Newton Rigg, United Kingdom (99152): temperature -20cm & temperature -100cm: 18.06.2017 23:00:00 - 24.06.2017 23:00:00 (BST)Newton Rigg, United Kingdom (99152): visibility: 18.06.2017 23:00:00 - 24.06.2017 23:00:00 (BST)Newton Rigg, United Kingdom (99152): precipitation: 18.06.2017 23:00:00 - 24.06.2017 23:00:00 (BST)
Date & Time tt [°C] td [°C] tt 5cm [°C] tt -20cm [°C] tt -100cm [°C] vv [km] rr [mm]
24.06.2017 23:00:00 - - - - - - 0,0
24.06.2017 22:00:00 12,5 7,1 - - - - 0,0
24.06.2017 21:00:00 13,0 7,3 - - - - 0,0
24.06.2017 20:00:00 13,3 7,2 - - - - 0,0
24.06.2017 19:00:00 13,9 7,1 - - - - 0,0
24.06.2017 18:00:00 14,2 7,6 - - - - 0,0
24.06.2017 17:00:00 15,8 9,0 - - - - 0,0
24.06.2017 16:00:00 15,5 8,7 - - - - 0,0
24.06.2017 15:00:00 15,9 9,2 - - - - 0,0
24.06.2017 14:00:00 14,8 8,9 - - - - 0,0
24.06.2017 13:00:00 14,4 9,5 - - - - 0,0
24.06.2017 12:00:00 14,2 9,8 - - - - 0,0
24.06.2017 11:00:00 13,2 9,7 - - - - 0,0
24.06.2017 10:00:00 11,4 9,8 - 16,2 14,2 1,0 0,0
24.06.2017 09:00:00 11,9 8,3 - - - - 0,0
24.06.2017 08:00:00 11,3 7,9 - - - - 0,0
24.06.2017 07:00:00 11,0 7,5 - - - - 0,0
24.06.2017 06:00:00 10,6 7,8 - - - - 0,0
24.06.2017 05:00:00 10,7 8,6 - - - - 0,0
24.06.2017 04:00:00 10,4 8,7 - - - - 0,0
24.06.2017 03:00:00 11,1 9,4 - - - - 0,0
24.06.2017 02:00:00 11,0 9,6 - - - - 0,0
24.06.2017 01:00:00 11,8 11,2 - - - - 0,0
24.06.2017 00:00:00 12,1 11,1 - - - - 0,0
23.06.2017 23:00:00 12,1 11,2 - - - - 0,0
23.06.2017 22:00:00 12,5 11,5 - - - 10 0,2
23.06.2017 21:00:00 12,6 11,9 - - - - 0,0
23.06.2017 20:00:00 12,7 11,9 - - - - 0,2
23.06.2017 19:00:00 13,4 13,0 - - - - 0,6
23.06.2017 18:00:00 13,5 12,7 - - - - 0,4
23.06.2017 17:00:00 14,4 13,7 - - - - 0,6
23.06.2017 16:00:00 15,4 12,9 - - - - 0,0
23.06.2017 15:00:00 15,5 12,7 - - - - 0,0
23.06.2017 14:00:00 15,5 12,9 - - - - 0,0
23.06.2017 13:00:00 15,1 13,0 - - - - 0,0
23.06.2017 12:00:00 15,4 13,7 - - - - 0,0
23.06.2017 11:00:00 13,7 12,4 - - - - 0,2
23.06.2017 10:00:00 14,5 11,6 - 16,7 14,2 1,4 0,0
23.06.2017 09:00:00 14,9 11,9 - - - - 0,0
23.06.2017 08:00:00 13,9 11,3 - - - - 0,0
23.06.2017 07:00:00 12,7 11,4 - - - - 2,2
23.06.2017 06:00:00 13,2 10,9 - - - - 0,4
23.06.2017 05:00:00 14,6 9,5 - - - - 0,0
23.06.2017 04:00:00 13,8 9,4 - - - - 0,0
23.06.2017 03:00:00 13,3 9,9 - - - - 0,4
23.06.2017 02:00:00 13,5 10,0 - - - - 0,0
23.06.2017 01:00:00 12,9 9,5 - - - - 0,0
23.06.2017 00:00:00 13,3 9,4 - - - - 0,0
22.06.2017 23:00:00 13,0 9,1 - - - - 0,0
22.06.2017 22:00:00 13,3 8,6 - - - - 0,0
22.06.2017 21:00:00 13,4 8,4 - - - - 0,0
22.06.2017 20:00:00 14,2 8,4 - - - - 0,0
22.06.2017 19:00:00 15,7 9,2 - - - - 0,0
22.06.2017 18:00:00 16,9 9,7 - - - - 0,0
22.06.2017 17:00:00 16,1 10,0 - - - - 0,0
22.06.2017 16:00:00 15,5 10,0 - - - - 0,0
22.06.2017 15:00:00 16,7 12,6 - - - - 0,0
22.06.2017 14:00:00 15,4 11,9 - - - - 0,0
22.06.2017 13:00:00 15,2 11,8 - - - - 0,0
22.06.2017 12:00:00 15,0 12,2 - - - - 0,0
22.06.2017 11:00:00 15,2 12,7 - - - - 0,0
22.06.2017 10:00:00 14,8 12,6 - 17,2 14,0 2,9 0,0
22.06.2017 09:00:00 14,7 13,7 - - - - 0,0
22.06.2017 08:00:00 15,3 15,0 - - - - 0,4
22.06.2017 07:00:00 15,9 15,5 - - - - 0,2
22.06.2017 06:00:00 15,9 15,0 - - - - 0,0
22.06.2017 05:00:00 16,4 15,1 - - - - 0,0
22.06.2017 04:00:00 16,8 15,0 - - - - 0,0
22.06.2017 03:00:00 16,6 14,3 - - - - 0,0
22.06.2017 02:00:00 17,8 14,5 - - - - 0,0
22.06.2017 01:00:00 19,6 14,8 - - - - 0,0
22.06.2017 00:00:00 20,6 16,6 - - - - 0,0
21.06.2017 23:00:00 21,0 17,4 - - - - 0,0
21.06.2017 22:00:00 21,1 17,0 - - - - 0,0
21.06.2017 21:00:00 22,8 17,0 - - - - 0,0
21.06.2017 20:00:00 23,7 18,3 - - - - 0,0
21.06.2017 19:00:00 24,6 18,4 - - - - 0,0
21.06.2017 18:00:00 24,7 17,3 - - - - 0,0
21.06.2017 17:00:00 25,5 16,0 - - - - 0,0
21.06.2017 16:00:00 24,6 14,8 - - - - 0,0
21.06.2017 15:00:00 23,0 17,6 - - - - 0,0
21.06.2017 14:00:00 22,1 17,1 - - - - 0,0
21.06.2017 13:00:00 20,5 16,6 - - - - 0,0
21.06.2017 12:00:00 20,5 16,4 - - - - 0,0
21.06.2017 11:00:00 18,7 15,3 - - - - 0,0
21.06.2017 10:00:00 15,2 13,9 15,6 16,9 13,9 2,2 0,0
21.06.2017 09:00:00 15,1 13,7 - - - - 0,0
21.06.2017 08:00:00 15,2 12,8 - - - - 0,0
21.06.2017 07:00:00 13,4 11,4 - - - - 0,0
21.06.2017 06:00:00 12,7 11,1 - - - - 0,0
21.06.2017 05:00:00 13,1 10,3 - - - - 0,0
21.06.2017 04:00:00 12,7 10,0 - - - - 0,0
21.06.2017 03:00:00 12,7 9,4 - - - - 0,0
21.06.2017 02:00:00 12,7 9,7 - - - - 0,0
21.06.2017 01:00:00 13,2 11,0 - - - - 0,0
21.06.2017 00:00:00 13,9 11,5 - - - - 0,0
20.06.2017 23:00:00 14,5 12,3 - - - - 0,0
20.06.2017 22:00:00 15,4 12,7 - - - - 0,0
20.06.2017 21:00:00 16,9 13,2 - - - - 0,0
20.06.2017 20:00:00 18,1 13,3 - - - - 0,0
20.06.2017 19:00:00 19,2 13,9 - - - - 0,0
20.06.2017 18:00:00 19,6 14,0 - - - - 0,0
20.06.2017 17:00:00 20,1 14,1 - - - - 0,0
20.06.2017 16:00:00 20,4 14,1 - - - - 0,0
20.06.2017 15:00:00 20,5 14,4 - - - - 0,0
20.06.2017 14:00:00 19,6 13,3 - - - - 0,0
20.06.2017 13:00:00 19,9 13,6 - - - - 0,0
20.06.2017 12:00:00 18,1 14,0 - - - - 0,0
20.06.2017 11:00:00 16,9 13,0 - - - - 0,0
20.06.2017 10:00:00 16,4 13,6 17,3 16,7 13,7 15 0,0
20.06.2017 09:00:00 15,8 13,3 - - - - 0,0
20.06.2017 08:00:00 14,0 13,8 - - - - 0,0
20.06.2017 07:00:00 12,9 12,9 - - - - 0,0
20.06.2017 06:00:00 12,1 12,1 - - - - 0,0
20.06.2017 05:00:00 11,5 11,5 - - - - 0,0
20.06.2017 04:00:00 11,1 11,0 - - - - 0,0
20.06.2017 03:00:00 10,9 10,3 - - - - 0,0
20.06.2017 02:00:00 11,3 10,3 - - - - 0,0
20.06.2017 01:00:00 12,5 10,5 - - - - 0,0
20.06.2017 00:00:00 14,0 11,6 - - - - 0,0
19.06.2017 23:00:00 15,0 11,8 - - - - 0,0
19.06.2017 22:00:00 17,3 13,2 - - - - 0,0
19.06.2017 21:00:00 19,7 14,6 - - - - 0,0
19.06.2017 20:00:00 21,7 15,0 - - - - 0,0
19.06.2017 19:00:00 22,0 14,7 - - - - 0,0
19.06.2017 18:00:00 24,1 15,3 - - - - 0,0
19.06.2017 17:00:00 24,4 15,2 - - - - 0,0
19.06.2017 16:00:00 23,2 15,5 - - - - 0,0
19.06.2017 15:00:00 25,0 17,6 - - - - 0,0
19.06.2017 14:00:00 23,6 16,7 - - - - 0,0
19.06.2017 13:00:00 24,4 16,1 - - - - 0,0
19.06.2017 12:00:00 24,0 14,2 - - - - 0,0
19.06.2017 11:00:00 23,0 14,5 - - - - 0,0
19.06.2017 10:00:00 21,4 12,9 21,5 16,2 13,2 19 0,0
19.06.2017 09:00:00 18,6 12,4 - - - - 0,0
19.06.2017 08:00:00 16,2 13,2 - - - - 0,0
19.06.2017 07:00:00 13,2 13,2 - - - - 0,0
19.06.2017 06:00:00 10,0 9,8 - - - - 0,0
19.06.2017 05:00:00 11,1 11,0 - - - - 0,0
19.06.2017 04:00:00 9,7 9,5 - - - - 0,0
19.06.2017 03:00:00 10,7 10,5 - - - - 0,0
19.06.2017 02:00:00 10,8 10,4 - - - - 0,0
19.06.2017 01:00:00 11,4 11,0 - - - - 0,0
19.06.2017 00:00:00 11,8 10,7 - - - - 0,0
18.06.2017 23:00:00 13,5 11,5 - - - - 0,0

tt = temperature
td = dewpoint
tt 5cm = temperature 5cm
tt -20cm = temperature -20cm
tt -100cm = temperature -100cm
vv = visibility
rr = precipitation

Next stations